Location: Maccacari
(45.1333°N, 11.1333°E)
Time: 13:14:11
(UTC+00:00)

Explorer 11/Cluster Stage 4 - All Passes

Search period start: 23 January 2021 00:00
Search period end: 02 February 2021 00:00
Orbit: 467 x 1258 km, 28.8° (Epoch: 22 January)

Date Brightness Start Highest point End Pass type
(mag) Time Alt. Az. Time Alt. Az. Time Alt. Az.
23 Jan - 00:18:47 10° SW 00:23:56 19° SSW 00:29:17 10° SSE night (unlit)
23 Jan - 20:32:50 10° SSW 20:36:47 17° SSE 20:41:09 10° SE night (unlit)
23 Jan - 22:19:26 10° SW 22:24:38 22° S 22:30:22 10° SE night (unlit)
24 Jan - 00:07:56 10° SW 00:12:42 18° SSW 00:17:40 10° SSE night (unlit)
24 Jan - 20:21:46 10° SSW 20:25:37 17° SSE 20:29:54 10° SE visible
24 Jan - 22:08:30 10° SW 22:13:27 21° S 22:18:55 10° SE night (unlit)
24 Jan - 23:57:13 10° SW 00:01:28 16° SSW 00:05:55 10° SSE night (unlit)
25 Jan - 20:10:47 10° SSW 20:14:28 17° SSE 20:18:35 10° SE visible
25 Jan - 21:57:38 10° SW 22:02:16 20° S 22:07:25 10° SE night (unlit)
25 Jan - 23:46:38 10° SW 23:50:14 14° SSW 23:54:01 10° S night (unlit)
26 Jan - 19:59:51 10° SSW 20:03:21 16° SSE 20:07:15 10° SE visible
26 Jan - 21:46:51 10° SW 21:51:07 18° S 21:55:51 10° SE night (unlit)
26 Jan - 23:36:20 10° SW 23:39:02 12° SSW 23:41:51 10° S night (unlit)
27 Jan - 19:48:59 10° SSW 19:52:15 16° S 19:55:52 10° SE visible
27 Jan - 21:36:09 10° SW 21:39:59 17° S 21:44:14 10° SSE night (unlit)
27 Jan - 23:26:55 10° SSW 23:27:51 10° SSW 23:28:47 10° SSW night (unlit)
28 Jan - 19:38:11 10° SSW 19:41:10 15° S 19:44:28 10° SE visible
28 Jan - 21:25:33 10° SW 21:28:52 15° S 21:32:30 10° SSE night (unlit)
29 Jan - 19:27:27 10° SSW 19:30:06 14° S 19:33:01 10° SE visible
29 Jan - 21:15:07 10° SW 21:17:46 13° S 21:20:38 10° SSE night (unlit)
30 Jan - 19:16:50 10° SSW 19:19:04 13° S 19:21:30 10° SSE visible
30 Jan - 21:05:03 10° SSW 21:06:41 11° S 21:08:24 10° S night (unlit)
31 Jan - 19:06:20 10° SSW 19:08:03 12° S 19:09:51 10° SSE visible
01 Feb - 18:56:13 10° S 18:57:02 10° S 18:57:53 10° S visible
